User: anonymous   Login
Location: Unspecified
(0.0000°N, 0.0000°E)
Time: 13:42:42
(UTC+01:00)
Language:

PSLV R/B - Orbit

View from above orbital plane
View from above orbital plane
View from above satellite
View from above satellite

Ground track
Ground track

The orbit data is extracted from the following two-line orbital elements,

1 29713U 07001E   16044.06168560  .00001247  00000-0  15313-3 0  9997
2 29713  97.7040  24.9907 0023891 265.0076  94.8411 14.84622434491336
Epoch (UTC): 13 February 2016 01:28:49
Eccentricity: 0.0023891
inclination: 97.7040°
perigee height: 598 km
apogee height: 631 km
right ascension of ascending node: 24.9907°
argument of perigee: 265.0076°
revolutions per day: 14.84622434
mean anomaly at epoch: 94.8411°
orbit number at epoch: 49133

The dashed part of the orbit path shows where the satellite is in the earth's shadow,  

DLR